FlightSource - Aviation Photo Database

World Wide Airport Lookup


Search by ICAO
Or
Search by City

FlightSource.ca - Aviation Photo Database - Cochrane Airport Information
Airport Identification
Name: Cochrane Airport
ICAO: SCHR
IATA: LGR
Airport Location
City: Cochrane
Region: AI
Country: Chile
Continent: South America
Latitude: -47.2438
Longitude: -72.5884
Airport Information
Type: Medium Airport
Elevation: 643 Feet ASL
Flight Status: SCHR
More Info: SCHR
Airport Weather    
Metar: SCHR 232000Z 30006KT 9999 FEW040 01/M05 Q1012
TAF:


Advertisement